Year,Month,Day,Hour,Minute,Value (Times are PST for temperature in C)
2014,08,10,00,00,11.30
2014,08,10,00,01,11.30
2014,08,10,00,02,11.30
2014,08,10,00,03,11.30
2014,08,10,00,04,11.30
2014,08,10,00,05,11.30
2014,08,10,00,06,11.30
2014,08,10,00,07,11.20
2014,08,10,00,08,11.20
2014,08,10,00,09,11.20
2014,08,10,00,10,11.20
2014,08,10,00,11,11.20
2014,08,10,00,12,11.30
2014,08,10,00,13,11.30
2014,08,10,00,14,11.30
2014,08,10,00,15,11.20
2014,08,10,00,16,11.20
2014,08,10,00,17,11.20
2014,08,10,00,18,11.20
2014,08,10,00,19,11.20
2014,08,10,00,20,11.20
2014,08,10,00,21,11.20
2014,08,10,00,22,11.10
2014,08,10,00,23,11.10
2014,08,10,00,24,11.10
2014,08,10,00,25,11.10
2014,08,10,00,26,11.10
2014,08,10,00,27,11.10
2014,08,10,00,28,11.10
2014,08,10,00,29,11.10
2014,08,10,00,30,11.10
2014,08,10,00,31,11.10
2014,08,10,00,32,11.10
2014,08,10,00,33,11.10
2014,08,10,00,34,11.10
2014,08,10,00,35,11.10
2014,08,10,00,36,11.10
2014,08,10,00,37,11.10
2014,08,10,00,38,11.10
2014,08,10,00,39,11.10
2014,08,10,00,40,11.10
2014,08,10,00,41,11.00
2014,08,10,00,42,11.00
2014,08,10,00,43,10.90
2014,08,10,00,44,10.90
2014,08,10,00,45,10.90
2014,08,10,00,46,10.90
2014,08,10,00,47,10.90
2014,08,10,00,48,10.90
2014,08,10,00,49,10.90
2014,08,10,00,50,10.90
2014,08,10,00,51,10.80
2014,08,10,00,52,10.80
2014,08,10,00,53,10.80
2014,08,10,00,54,10.80
2014,08,10,00,55,10.80
2014,08,10,00,56,10.80
2014,08,10,00,57,10.80
2014,08,10,00,58,10.80
2014,08,10,00,59,10.80
2014,08,10,01,00,10.80
2014,08,10,01,01,10.80
2014,08,10,01,02,10.80
2014,08,10,01,03,10.80
2014,08,10,01,04,10.80
2014,08,10,01,05,10.80
2014,08,10,01,06,10.80
2014,08,10,01,07,10.80
2014,08,10,01,08,10.80
2014,08,10,01,09,10.80
2014,08,10,01,10,10.80
2014,08,10,01,11,10.80
2014,08,10,01,12,10.80
2014,08,10,01,13,10.80
2014,08,10,01,14,10.80
2014,08,10,01,15,10.80
2014,08,10,01,16,10.80
2014,08,10,01,17,10.80
2014,08,10,01,18,10.70
2014,08,10,01,19,10.70
2014,08,10,01,20,10.70
2014,08,10,01,21,10.70
2014,08,10,01,22,10.70
2014,08,10,01,23,10.70
2014,08,10,01,24,10.70
2014,08,10,01,25,10.70
2014,08,10,01,26,10.70
2014,08,10,01,27,10.70
2014,08,10,01,28,10.70
2014,08,10,01,29,10.70
2014,08,10,01,30,10.70
2014,08,10,01,31,10.70
2014,08,10,01,32,10.70
2014,08,10,01,33,10.70
2014,08,10,01,34,10.70
2014,08,10,01,35,10.70
2014,08,10,01,36,10.70
2014,08,10,01,37,10.70
2014,08,10,01,38,10.70
2014,08,10,01,39,10.70
2014,08,10,01,40,10.70
2014,08,10,01,41,10.70
2014,08,10,01,42,10.70
2014,08,10,01,43,10.70
2014,08,10,01,44,10.70
2014,08,10,01,45,10.60
2014,08,10,01,46,10.60
2014,08,10,01,47,10.60
2014,08,10,01,48,10.50
2014,08,10,01,49,10.50
2014,08,10,01,50,10.50
2014,08,10,01,51,10.50
2014,08,10,01,52,10.50
2014,08,10,01,53,10.50
2014,08,10,01,54,10.50
2014,08,10,01,55,10.50
2014,08,10,01,56,10.50
2014,08,10,01,57,10.40
2014,08,10,01,58,10.40
2014,08,10,01,59,10.40
2014,08,10,02,00,10.40
2014,08,10,02,01,10.40
2014,08,10,02,02,10.40
2014,08,10,02,03,10.40
2014,08,10,02,04,10.40
2014,08,10,02,05,10.40
2014,08,10,02,06,10.40
2014,08,10,02,07,10.40
2014,08,10,02,08,10.30
2014,08,10,02,09,10.30
2014,08,10,02,10,10.30
2014,08,10,02,11,10.30
2014,08,10,02,12,10.30
2014,08,10,02,13,10.30
2014,08,10,02,14,10.40
2014,08,10,02,15,10.30
2014,08,10,02,16,10.30
2014,08,10,02,17,10.30
2014,08,10,02,18,10.30
2014,08,10,02,19,10.30
2014,08,10,02,20,10.30
2014,08,10,02,21,10.30
2014,08,10,02,22,10.20
2014,08,10,02,23,10.20
2014,08,10,02,24,10.20
2014,08,10,02,25,10.20
2014,08,10,02,26,10.20
2014,08,10,02,27,10.20
2014,08,10,02,28,10.20
2014,08,10,02,29,10.20
2014,08,10,02,30,10.20
2014,08,10,02,31,10.20
2014,08,10,02,32,10.20
2014,08,10,02,33,10.20
2014,08,10,02,34,10.20
2014,08,10,02,35,10.20
2014,08,10,02,36,10.20
2014,08,10,02,37,10.20
2014,08,10,02,38,10.20
2014,08,10,02,39,10.20
2014,08,10,02,40,10.20
2014,08,10,02,41,10.20
2014,08,10,02,42,10.20
2014,08,10,02,43,10.20
2014,08,10,02,44,10.20
2014,08,10,02,45,10.20
2014,08,10,02,46,10.20
2014,08,10,02,47,10.20
2014,08,10,02,48,10.20
2014,08,10,02,49,10.30
2014,08,10,02,50,10.40
2014,08,10,02,51,10.40
2014,08,10,02,52,10.50
2014,08,10,02,53,10.50
2014,08,10,02,54,10.60
2014,08,10,02,55,10.50
2014,08,10,02,56,10.50
2014,08,10,02,57,10.50
2014,08,10,02,58,10.50
2014,08,10,02,59,10.50
2014,08,10,03,00,10.50
2014,08,10,03,01,10.50
2014,08,10,03,02,10.50
2014,08,10,03,03,10.50
2014,08,10,03,04,10.40
2014,08,10,03,05,10.40
2014,08,10,03,06,10.40
2014,08,10,03,07,10.40
2014,08,10,03,08,10.30
2014,08,10,03,09,10.30
2014,08,10,03,10,10.30
2014,08,10,03,11,10.30
2014,08,10,03,12,10.30
2014,08,10,03,13,10.20
2014,08,10,03,14,10.20
2014,08,10,03,15,10.20
2014,08,10,03,16,10.20
2014,08,10,03,17,10.20
2014,08,10,03,18,10.10
2014,08,10,03,19,10.10
2014,08,10,03,20,10.10
2014,08,10,03,21,10.10
2014,08,10,03,22,10.00
2014,08,10,03,23,10.00
2014,08,10,03,24,10.00
2014,08,10,03,25,9.90
2014,08,10,03,26,9.90
2014,08,10,03,27,9.90
2014,08,10,03,28,9.90
2014,08,10,03,29,9.90
2014,08,10,03,30,10.00
2014,08,10,03,31,10.00
2014,08,10,03,32,10.00
2014,08,10,03,33,10.10
2014,08,10,03,34,10.10
2014,08,10,03,35,10.20
2014,08,10,03,36,10.20
2014,08,10,03,37,10.20
2014,08,10,03,38,10.20
2014,08,10,03,39,10.20
2014,08,10,03,40,10.20
2014,08,10,03,41,10.30
2014,08,10,03,42,10.40
2014,08,10,03,43,10.50
2014,08,10,03,44,10.50
2014,08,10,03,45,10.60
2014,08,10,03,46,10.60
2014,08,10,03,47,10.60
2014,08,10,03,48,10.60
2014,08,10,03,49,10.60
2014,08,10,03,50,10.60
2014,08,10,03,51,10.60
2014,08,10,03,52,10.50
2014,08,10,03,53,10.50
2014,08,10,03,54,10.50
2014,08,10,03,55,10.40
2014,08,10,03,56,10.40
2014,08,10,03,57,10.40
2014,08,10,03,58,10.30
2014,08,10,03,59,10.30
2014,08,10,04,00,10.30
2014,08,10,04,01,10.30
2014,08,10,04,02,10.30
2014,08,10,04,03,10.30
2014,08,10,04,04,10.30
2014,08,10,04,05,10.20
2014,08,10,04,06,10.20
2014,08,10,04,07,10.20
2014,08,10,04,08,10.20
2014,08,10,04,09,10.20
2014,08,10,04,10,10.10
2014,08,10,04,11,10.10
2014,08,10,04,12,10.00
2014,08,10,04,13,10.00
2014,08,10,04,14,10.00
2014,08,10,04,15,9.90
2014,08,10,04,16,9.90
2014,08,10,04,17,9.90
2014,08,10,04,18,9.90
2014,08,10,04,19,9.90
2014,08,10,04,20,9.90
2014,08,10,04,21,9.90
2014,08,10,04,22,10.00
2014,08,10,04,23,10.00
2014,08,10,04,24,10.00
2014,08,10,04,25,10.10
2014,08,10,04,26,10.10
2014,08,10,04,27,10.10
2014,08,10,04,28,10.20
2014,08,10,04,29,10.20
2014,08,10,04,30,10.20
2014,08,10,04,31,10.30
2014,08,10,04,32,10.30
2014,08,10,04,33,10.30
2014,08,10,04,34,10.30
2014,08,10,04,35,10.30
2014,08,10,04,36,10.30
2014,08,10,04,37,10.20
2014,08,10,04,38,10.20
2014,08,10,04,39,10.20
2014,08,10,04,40,10.10
2014,08,10,04,41,10.10
2014,08,10,04,42,10.10
2014,08,10,04,43,10.10
2014,08,10,04,44,10.10
2014,08,10,04,45,10.10
2014,08,10,04,46,10.10
2014,08,10,04,47,10.10
2014,08,10,04,48,10.10
2014,08,10,04,49,10.10
2014,08,10,04,50,10.10
2014,08,10,04,51,10.10
2014,08,10,04,52,10.00
2014,08,10,04,53,10.00
2014,08,10,04,54,10.00
2014,08,10,04,55,9.90
2014,08,10,04,56,10.00
2014,08,10,04,57,10.00
2014,08,10,04,58,10.00
2014,08,10,04,59,10.10
2014,08,10,05,00,10.10
2014,08,10,05,01,10.10
2014,08,10,05,02,10.10
2014,08,10,05,03,10.10
2014,08,10,05,04,10.10
2014,08,10,05,05,10.10
2014,08,10,05,06,10.10
2014,08,10,05,07,10.10
2014,08,10,05,08,10.20
2014,08,10,05,09,10.20
2014,08,10,05,10,10.20
2014,08,10,05,11,10.30
2014,08,10,05,12,10.30
2014,08,10,05,13,10.30
2014,08,10,05,14,10.30
2014,08,10,05,15,10.30
2014,08,10,05,16,10.30
2014,08,10,05,17,10.30
2014,08,10,05,18,10.30
2014,08,10,05,19,10.30
2014,08,10,05,20,10.20
2014,08,10,05,21,10.20
2014,08,10,05,22,10.20
2014,08,10,05,23,10.20
2014,08,10,05,24,10.20
2014,08,10,05,25,10.20
2014,08,10,05,26,10.20
2014,08,10,05,27,10.30
2014,08,10,05,28,10.30
2014,08,10,05,29,10.40
2014,08,10,05,30,10.40
2014,08,10,05,31,10.40
2014,08,10,05,32,10.40
2014,08,10,05,33,10.40
2014,08,10,05,34,10.40
2014,08,10,05,35,10.50
2014,08,10,05,36,10.50
2014,08,10,05,37,10.60
2014,08,10,05,38,10.60
2014,08,10,05,39,10.60
2014,08,10,05,40,10.60
2014,08,10,05,41,10.60
2014,08,10,05,42,10.60
2014,08,10,05,43,10.60
2014,08,10,05,44,10.60
2014,08,10,05,45,10.50
2014,08,10,05,46,10.50
2014,08,10,05,47,10.50
2014,08,10,05,48,10.40
2014,08,10,05,49,10.40
2014,08,10,05,50,10.40
2014,08,10,05,51,10.40
2014,08,10,05,52,10.40
2014,08,10,05,53,10.40
2014,08,10,05,54,10.50
2014,08,10,05,55,10.50
2014,08,10,05,56,10.50
2014,08,10,05,57,10.50
2014,08,10,05,58,10.60
2014,08,10,05,59,10.60
2014,08,10,06,00,10.60
2014,08,10,06,01,10.50
2014,08,10,06,02,10.50
2014,08,10,06,03,10.60
2014,08,10,06,04,10.60
2014,08,10,06,05,10.60
2014,08,10,06,06,10.60
2014,08,10,06,07,10.60
2014,08,10,06,08,10.60
2014,08,10,06,09,10.60
2014,08,10,06,10,10.60
2014,08,10,06,11,10.60
2014,08,10,06,12,10.60
2014,08,10,06,13,10.60
2014,08,10,06,14,10.60
2014,08,10,06,15,10.70
2014,08,10,06,16,10.70
2014,08,10,06,17,10.70
2014,08,10,06,18,10.70
2014,08,10,06,19,10.70
2014,08,10,06,20,10.70
2014,08,10,06,21,10.70
2014,08,10,06,22,10.80
2014,08,10,06,23,10.80
2014,08,10,06,24,10.80
2014,08,10,06,25,10.80
2014,08,10,06,26,10.80
2014,08,10,06,27,10.90
2014,08,10,06,28,10.90
2014,08,10,06,29,11.00
2014,08,10,06,30,11.00
2014,08,10,06,31,11.10
2014,08,10,06,32,11.10
2014,08,10,06,33,11.20
2014,08,10,06,34,11.20
2014,08,10,06,35,11.30
2014,08,10,06,36,11.30
2014,08,10,06,37,11.30
2014,08,10,06,38,11.40
2014,08,10,06,39,11.40
2014,08,10,06,40,11.50
2014,08,10,06,41,11.50
2014,08,10,06,42,11.60
2014,08,10,06,43,11.60
2014,08,10,06,44,11.60
2014,08,10,06,45,11.70
2014,08,10,06,46,11.70
2014,08,10,06,47,11.80
2014,08,10,06,48,11.80
2014,08,10,06,49,11.80
2014,08,10,06,50,11.80
2014,08,10,06,51,11.80
2014,08,10,06,52,11.80
2014,08,10,06,53,11.90
2014,08,10,06,54,11.90
2014,08,10,06,55,11.90
2014,08,10,06,56,12.00
2014,08,10,06,57,12.10
2014,08,10,06,58,12.10
2014,08,10,06,59,12.10
2014,08,10,07,00,12.20
2014,08,10,07,01,12.20
2014,08,10,07,02,12.30
2014,08,10,07,03,12.30
2014,08,10,07,04,12.40
2014,08,10,07,05,12.50
2014,08,10,07,06,12.70
2014,08,10,07,07,12.80
2014,08,10,07,08,12.90
2014,08,10,07,09,13.00
2014,08,10,07,10,13.10
2014,08,10,07,11,13.30
2014,08,10,07,12,13.40
2014,08,10,07,13,13.50
2014,08,10,07,14,13.50
2014,08,10,07,15,13.60
2014,08,10,07,16,13.70
2014,08,10,07,17,13.80
2014,08,10,07,18,13.80
2014,08,10,07,19,13.90
2014,08,10,07,20,14.00
2014,08,10,07,21,14.10
2014,08,10,07,22,14.10
2014,08,10,07,23,14.20
2014,08,10,07,24,14.30
2014,08,10,07,25,14.30
2014,08,10,07,26,14.40
2014,08,10,07,27,14.40
2014,08,10,07,28,14.40
2014,08,10,07,29,14.50
2014,08,10,07,30,14.50
2014,08,10,07,31,14.50
2014,08,10,07,32,14.50
2014,08,10,07,33,14.60
2014,08,10,07,34,14.70
2014,08,10,07,35,14.70
2014,08,10,07,36,14.80
2014,08,10,07,37,14.90
2014,08,10,07,38,15.00
2014,08,10,07,39,15.10
2014,08,10,07,40,15.20
2014,08,10,07,41,15.30
2014,08,10,07,42,15.40
2014,08,10,07,43,15.50
2014,08,10,07,44,15.60
2014,08,10,07,45,15.70
2014,08,10,07,46,15.90
2014,08,10,07,47,16.00
2014,08,10,07,48,16.10
2014,08,10,07,49,16.10
2014,08,10,07,50,16.20
2014,08,10,07,51,16.30
2014,08,10,07,52,16.30
2014,08,10,07,53,16.40
2014,08,10,07,54,16.40
2014,08,10,07,55,16.40
2014,08,10,07,56,16.40
2014,08,10,07,57,16.50
2014,08,10,07,58,16.50
2014,08,10,07,59,16.60
2014,08,10,08,00,16.60
2014,08,10,08,01,16.70
2014,08,10,08,02,16.70
2014,08,10,08,03,16.80
2014,08,10,08,04,16.80
2014,08,10,08,05,16.80
2014,08,10,08,06,16.90
2014,08,10,08,07,16.90
2014,08,10,08,08,16.90
2014,08,10,08,09,16.90
2014,08,10,08,10,17.00
2014,08,10,08,11,17.10
2014,08,10,08,12,17.20
2014,08,10,08,13,17.30
2014,08,10,08,14,17.40
2014,08,10,08,15,17.50
2014,08,10,08,16,17.60
2014,08,10,08,17,17.80
2014,08,10,08,18,17.90
2014,08,10,08,19,18.00
2014,08,10,08,20,18.10
2014,08,10,08,21,18.10
2014,08,10,08,22,18.10
2014,08,10,08,23,18.10
2014,08,10,08,24,18.00
2014,08,10,08,25,17.90
2014,08,10,08,26,17.80
2014,08,10,08,27,17.80
2014,08,10,08,28,17.80
2014,08,10,08,29,17.80
2014,08,10,08,30,17.80
2014,08,10,08,31,17.90
2014,08,10,08,32,17.90
2014,08,10,08,33,18.00
2014,08,10,08,34,18.10
2014,08,10,08,35,18.10
2014,08,10,08,36,18.10
2014,08,10,08,37,18.20
2014,08,10,08,38,18.20
2014,08,10,08,39,18.30
2014,08,10,08,40,18.30
2014,08,10,08,41,18.40
2014,08,10,08,42,18.40
2014,08,10,08,43,18.60
2014,08,10,08,44,18.60
2014,08,10,08,45,18.70
2014,08,10,08,46,18.80
2014,08,10,08,47,19.00
2014,08,10,08,48,19.10
2014,08,10,08,49,19.30
2014,08,10,08,50,19.40
2014,08,10,08,51,19.50
2014,08,10,08,52,19.60
2014,08,10,08,53,19.70
2014,08,10,08,54,19.80
2014,08,10,08,55,19.80
2014,08,10,08,56,19.80
2014,08,10,08,57,19.80
2014,08,10,08,58,19.90
2014,08,10,08,59,19.90
2014,08,10,09,00,20.00
2014,08,10,09,01,20.00
2014,08,10,09,02,20.10
2014,08,10,09,03,20.20
2014,08,10,09,04,20.20
2014,08,10,09,05,20.30
2014,08,10,09,06,20.50
2014,08,10,09,07,20.60
2014,08,10,09,08,20.70
2014,08,10,09,09,20.70
2014,08,10,09,10,20.80
2014,08,10,09,11,20.80
2014,08,10,09,12,20.80
2014,08,10,09,13,20.90
2014,08,10,09,14,20.90
2014,08,10,09,15,20.90
2014,08,10,09,16,20.90
2014,08,10,09,17,20.90
2014,08,10,09,18,20.90
2014,08,10,09,19,20.90
2014,08,10,09,20,20.90
2014,08,10,09,21,20.90
2014,08,10,09,22,21.00
2014,08,10,09,23,21.00
2014,08,10,09,24,21.10
2014,08,10,09,25,21.00
2014,08,10,09,26,21.10
2014,08,10,09,27,21.00
2014,08,10,09,28,21.00
2014,08,10,09,29,20.90
2014,08,10,09,30,20.90
2014,08,10,09,31,20.80
2014,08,10,09,32,20.80
2014,08,10,09,33,20.70
2014,08,10,09,34,20.70
2014,08,10,09,35,20.60
2014,08,10,09,36,20.60
2014,08,10,09,37,20.60
2014,08,10,09,38,20.50
2014,08,10,09,39,20.40
2014,08,10,09,40,20.40
2014,08,10,09,41,20.40
2014,08,10,09,42,20.40
2014,08,10,09,43,20.50
2014,08,10,09,44,20.50
2014,08,10,09,45,20.60
2014,08,10,09,46,20.70
2014,08,10,09,47,20.80
2014,08,10,09,48,20.90
2014,08,10,09,49,21.10
2014,08,10,09,50,21.30
2014,08,10,09,51,21.40
2014,08,10,09,52,21.50
2014,08,10,09,53,21.50
2014,08,10,09,54,21.50
2014,08,10,09,55,21.50
2014,08,10,09,56,21.50
2014,08,10,09,57,21.50
2014,08,10,09,58,21.60
2014,08,10,09,59,21.70
2014,08,10,10,00,21.80
2014,08,10,10,01,21.80
2014,08,10,10,02,21.80
2014,08,10,10,03,21.80
2014,08,10,10,04,21.90
2014,08,10,10,05,22.00
2014,08,10,10,06,22.10
2014,08,10,10,07,22.20
2014,08,10,10,08,22.20
2014,08,10,10,09,22.20
2014,08,10,10,10,22.10
2014,08,10,10,11,22.10
2014,08,10,10,12,22.00
2014,08,10,10,13,22.00
2014,08,10,10,14,22.10
2014,08,10,10,15,22.20
2014,08,10,10,16,22.20
2014,08,10,10,17,22.20
2014,08,10,10,18,22.10
2014,08,10,10,19,22.10
2014,08,10,10,20,22.20
2014,08,10,10,21,22.20
2014,08,10,10,22,22.40
2014,08,10,10,23,22.40
2014,08,10,10,24,22.40
2014,08,10,10,25,22.40
2014,08,10,10,26,22.50
2014,08,10,10,27,22.60
2014,08,10,10,28,22.70
2014,08,10,10,29,22.60
2014,08,10,10,30,22.50
2014,08,10,10,31,22.30
2014,08,10,10,32,22.30
2014,08,10,10,33,22.30
2014,08,10,10,34,22.40
2014,08,10,10,35,22.40
2014,08,10,10,36,22.40
2014,08,10,10,37,22.30
2014,08,10,10,38,22.30
2014,08,10,10,39,22.30
2014,08,10,10,40,22.30
2014,08,10,10,41,22.40
2014,08,10,10,42,22.60
2014,08,10,10,43,22.70
2014,08,10,10,44,22.80
2014,08,10,10,45,22.90
2014,08,10,10,46,22.90
2014,08,10,10,47,23.10
2014,08,10,10,48,23.10
2014,08,10,10,49,23.10
2014,08,10,10,50,23.10
2014,08,10,10,51,23.10
2014,08,10,10,52,23.10
2014,08,10,10,53,23.20
2014,08,10,10,54,23.30
2014,08,10,10,55,23.40
2014,08,10,10,56,23.40
2014,08,10,10,57,23.40
2014,08,10,10,58,23.40
2014,08,10,10,59,23.50
2014,08,10,11,00,23.50
2014,08,10,11,01,23.50
2014,08,10,11,02,23.60
2014,08,10,11,03,23.60
2014,08,10,11,04,23.60
2014,08,10,11,05,23.70
2014,08,10,11,06,23.70
2014,08,10,11,07,23.80
2014,08,10,11,08,23.90
2014,08,10,11,09,23.90
2014,08,10,11,10,24.00
2014,08,10,11,11,24.10
2014,08,10,11,12,24.10
2014,08,10,11,13,24.10
2014,08,10,11,14,24.10
2014,08,10,11,15,24.10
2014,08,10,11,16,24.10
2014,08,10,11,17,24.10
2014,08,10,11,18,24.20
2014,08,10,11,19,24.20
2014,08,10,11,20,24.30
2014,08,10,11,21,24.10
2014,08,10,11,22,24.00
2014,08,10,11,23,24.00
2014,08,10,11,24,24.00
2014,08,10,11,25,24.00
2014,08,10,11,26,24.00
2014,08,10,11,27,24.00
2014,08,10,11,28,24.00
2014,08,10,11,29,24.10
2014,08,10,11,30,24.10
2014,08,10,11,31,24.20
2014,08,10,11,32,24.20
2014,08,10,11,33,24.30
2014,08,10,11,34,24.30
2014,08,10,11,35,24.30
2014,08,10,11,36,24.30
2014,08,10,11,37,24.30
2014,08,10,11,38,24.30
2014,08,10,11,39,24.20
2014,08,10,11,40,24.20
2014,08,10,11,41,24.10
2014,08,10,11,42,24.10
2014,08,10,11,43,24.10
2014,08,10,11,44,24.20
2014,08,10,11,45,24.30
2014,08,10,11,46,24.40
2014,08,10,11,47,24.60
2014,08,10,11,48,24.80
2014,08,10,11,49,24.90
2014,08,10,11,50,25.10
2014,08,10,11,51,25.20
2014,08,10,11,52,25.30
2014,08,10,11,53,25.40
2014,08,10,11,54,25.50
2014,08,10,11,55,25.60
2014,08,10,11,56,25.70
2014,08,10,11,57,25.70
2014,08,10,11,58,25.60
2014,08,10,11,59,25.40
2014,08,10,12,00,25.10
2014,08,10,12,01,25.00
2014,08,10,12,02,24.90
2014,08,10,12,03,24.90
2014,08,10,12,04,24.90
2014,08,10,12,05,25.00
2014,08,10,12,06,25.10
2014,08,10,12,07,25.10
2014,08,10,12,08,25.10
2014,08,10,12,09,25.10
2014,08,10,12,10,25.00
2014,08,10,12,11,24.90
2014,08,10,12,12,24.90
2014,08,10,12,13,24.90
2014,08,10,12,14,25.00
2014,08,10,12,15,25.00
2014,08,10,12,16,25.10
2014,08,10,12,17,25.20
2014,08,10,12,18,25.20
2014,08,10,12,19,25.30
2014,08,10,12,20,25.30
2014,08,10,12,21,25.30
2014,08,10,12,22,25.30
2014,08,10,12,23,25.20
2014,08,10,12,24,25.10
2014,08,10,12,25,24.90
2014,08,10,12,26,24.70
2014,08,10,12,27,24.50
2014,08,10,12,28,24.30
2014,08,10,12,29,24.30
2014,08,10,12,30,24.30
2014,08,10,12,31,24.50
2014,08,10,12,32,24.60
2014,08,10,12,33,24.80
2014,08,10,12,34,25.00
2014,08,10,12,35,25.10
2014,08,10,12,36,25.20
2014,08,10,12,37,25.20
2014,08,10,12,38,25.20
2014,08,10,12,39,25.20
2014,08,10,12,40,25.10
2014,08,10,12,41,25.00
2014,08,10,12,42,24.80
2014,08,10,12,43,24.60
2014,08,10,12,44,24.60
2014,08,10,12,45,24.50
2014,08,10,12,46,24.60
2014,08,10,12,47,24.60
2014,08,10,12,48,24.60
2014,08,10,12,49,24.60
2014,08,10,12,50,24.60
2014,08,10,12,51,24.70
2014,08,10,12,52,24.70
2014,08,10,12,53,24.80
2014,08,10,12,54,24.90
2014,08,10,12,55,25.00
2014,08,10,12,56,25.20
2014,08,10,12,57,25.20
2014,08,10,12,58,25.30
2014,08,10,12,59,25.30
2014,08,10,13,00,25.40
2014,08,10,13,01,25.50
2014,08,10,13,02,25.70
2014,08,10,13,03,25.70
2014,08,10,13,04,25.60
2014,08,10,13,05,25.40
2014,08,10,13,06,25.00
2014,08,10,13,07,24.80
2014,08,10,13,08,24.60
2014,08,10,13,09,24.60
2014,08,10,13,10,24.50
2014,08,10,13,11,24.50
2014,08,10,13,12,24.40
2014,08,10,13,13,24.30
2014,08,10,13,14,24.30
2014,08,10,13,15,24.40
2014,08,10,13,16,24.50
2014,08,10,13,17,24.60
2014,08,10,13,18,24.70
2014,08,10,13,19,24.80
2014,08,10,13,20,24.80
2014,08,10,13,21,24.80
2014,08,10,13,22,24.80
2014,08,10,13,23,24.80
2014,08,10,13,24,24.90
2014,08,10,13,25,24.90
2014,08,10,13,26,25.00
2014,08,10,13,27,25.00
2014,08,10,13,28,25.10
2014,08,10,13,29,25.10
2014,08,10,13,30,25.10
2014,08,10,13,31,25.20
2014,08,10,13,32,25.30
2014,08,10,13,33,25.40
2014,08,10,13,34,25.40
2014,08,10,13,35,25.40
2014,08,10,13,36,25.40
2014,08,10,13,37,25.30
2014,08,10,13,38,25.20
2014,08,10,13,39,25.20
2014,08,10,13,40,25.20
2014,08,10,13,41,25.20
2014,08,10,13,42,25.20
2014,08,10,13,43,25.30
2014,08,10,13,44,25.40
2014,08,10,13,45,25.50
2014,08,10,13,46,25.60
2014,08,10,13,47,25.60
2014,08,10,13,48,25.50
2014,08,10,13,49,25.40
2014,08,10,13,50,25.40
2014,08,10,13,51,25.50
2014,08,10,13,52,25.60
2014,08,10,13,53,25.70
2014,08,10,13,54,25.80
2014,08,10,13,55,26.00
2014,08,10,13,56,26.10
2014,08,10,13,57,26.30
2014,08,10,13,58,26.40
2014,08,10,13,59,26.50
2014,08,10,14,00,26.50
2014,08,10,14,01,26.60
2014,08,10,14,02,26.60
2014,08,10,14,03,26.60
2014,08,10,14,04,26.60
2014,08,10,14,05,26.60
2014,08,10,14,06,26.60
2014,08,10,14,07,26.60
2014,08,10,14,08,26.60
2014,08,10,14,09,26.60
2014,08,10,14,10,26.70
2014,08,10,14,11,26.70
2014,08,10,14,12,26.70
2014,08,10,14,13,26.70
2014,08,10,14,14,26.80
2014,08,10,14,15,26.90
2014,08,10,14,16,27.00
2014,08,10,14,17,27.10
2014,08,10,14,18,27.00
2014,08,10,14,19,26.90
2014,08,10,14,20,26.80
2014,08,10,14,21,26.80
2014,08,10,14,22,26.70
2014,08,10,14,23,26.70
2014,08,10,14,24,26.60
2014,08,10,14,25,26.60
2014,08,10,14,26,26.60
2014,08,10,14,27,26.70
2014,08,10,14,28,26.80
2014,08,10,14,29,26.90
2014,08,10,14,30,27.10
2014,08,10,14,31,27.20
2014,08,10,14,32,27.30
2014,08,10,14,33,27.30
2014,08,10,14,34,27.40
2014,08,10,14,35,27.50
2014,08,10,14,36,27.50
2014,08,10,14,37,27.60
2014,08,10,14,38,27.70
2014,08,10,14,39,27.70
2014,08,10,14,40,27.70
2014,08,10,14,41,27.70
2014,08,10,14,42,27.70
2014,08,10,14,43,27.80
2014,08,10,14,44,27.80
2014,08,10,14,45,27.90
2014,08,10,14,46,28.00
2014,08,10,14,47,28.00
2014,08,10,14,48,28.00
2014,08,10,14,49,27.90
2014,08,10,14,50,27.80
2014,08,10,14,51,27.80
2014,08,10,14,52,27.70
2014,08,10,14,53,27.70
2014,08,10,14,54,27.70
2014,08,10,14,55,27.70
2014,08,10,14,56,27.70
2014,08,10,14,57,27.70
2014,08,10,14,58,27.70
2014,08,10,14,59,27.70
2014,08,10,15,00,27.70
2014,08,10,15,01,27.70
2014,08,10,15,02,27.60
2014,08,10,15,03,27.50
2014,08,10,15,04,27.50
2014,08,10,15,05,27.40
2014,08,10,15,06,27.40
2014,08,10,15,07,27.40
2014,08,10,15,08,27.50
2014,08,10,15,09,27.60
2014,08,10,15,10,27.70
2014,08,10,15,11,27.80
2014,08,10,15,12,27.90
2014,08,10,15,13,27.90
2014,08,10,15,14,28.00
2014,08,10,15,15,28.10
2014,08,10,15,16,28.10
2014,08,10,15,17,28.10
2014,08,10,15,18,28.10
2014,08,10,15,19,28.10
2014,08,10,15,20,28.20
2014,08,10,15,21,28.20
2014,08,10,15,22,28.30
2014,08,10,15,23,28.30
2014,08,10,15,24,28.40
2014,08,10,15,25,28.40
2014,08,10,15,26,28.50
2014,08,10,15,27,28.50
2014,08,10,15,28,28.50
2014,08,10,15,29,28.50
2014,08,10,15,30,28.50
2014,08,10,15,31,28.50
2014,08,10,15,32,28.50
2014,08,10,15,33,28.50
2014,08,10,15,34,28.40
2014,08,10,15,35,28.40
2014,08,10,15,36,28.40
2014,08,10,15,37,28.40
2014,08,10,15,38,28.40
2014,08,10,15,39,28.40
2014,08,10,15,40,28.40
2014,08,10,15,41,28.40
2014,08,10,15,42,28.50
2014,08,10,15,43,28.50
2014,08,10,15,44,28.60
2014,08,10,15,45,28.60
2014,08,10,15,46,28.70
2014,08,10,15,47,28.80
2014,08,10,15,48,28.90
2014,08,10,15,49,28.90
2014,08,10,15,50,28.90
2014,08,10,15,51,28.90
2014,08,10,15,52,28.90
2014,08,10,15,53,28.90
2014,08,10,15,54,28.80
2014,08,10,15,55,28.80
2014,08,10,15,56,28.90
2014,08,10,15,57,28.80
2014,08,10,15,58,28.90
2014,08,10,15,59,28.90
2014,08,10,16,00,29.00
2014,08,10,16,01,29.10
2014,08,10,16,02,29.20
2014,08,10,16,03,29.20
2014,08,10,16,04,29.20
2014,08,10,16,05,29.10
2014,08,10,16,06,29.10
2014,08,10,16,07,29.00
2014,08,10,16,08,28.90
2014,08,10,16,09,28.80
2014,08,10,16,10,28.80
2014,08,10,16,11,28.80
2014,08,10,16,12,28.80
2014,08,10,16,13,28.80
2014,08,10,16,14,28.80
2014,08,10,16,15,28.80
2014,08,10,16,16,28.80
2014,08,10,16,17,28.80
2014,08,10,16,18,28.90
2014,08,10,16,19,28.80
2014,08,10,16,20,28.80
2014,08,10,16,21,28.70
2014,08,10,16,22,28.70
2014,08,10,16,23,28.60
2014,08,10,16,24,28.60
2014,08,10,16,25,28.50
2014,08,10,16,26,28.40
2014,08,10,16,27,28.30
2014,08,10,16,28,28.20
2014,08,10,16,29,28.20
2014,08,10,16,30,28.10
2014,08,10,16,31,28.00
2014,08,10,16,32,27.90
2014,08,10,16,33,27.80
2014,08,10,16,34,27.80
2014,08,10,16,35,27.70
2014,08,10,16,36,27.70
2014,08,10,16,37,27.50
2014,08,10,16,38,27.40
2014,08,10,16,39,27.30
2014,08,10,16,40,27.20
2014,08,10,16,41,27.20
2014,08,10,16,42,27.20
2014,08,10,16,43,27.30
2014,08,10,16,44,27.30
2014,08,10,16,45,27.30
2014,08,10,16,46,27.40
2014,08,10,16,47,27.30
2014,08,10,16,48,27.30
2014,08,10,16,49,27.40
2014,08,10,16,50,27.40
2014,08,10,16,51,27.30
2014,08,10,16,52,27.30
2014,08,10,16,53,27.30
2014,08,10,16,54,27.30
2014,08,10,16,55,27.30
2014,08,10,16,56,27.30
2014,08,10,16,57,27.20
2014,08,10,16,58,27.00
2014,08,10,16,59,26.90
2014,08,10,17,00,26.80
2014,08,10,17,01,26.70
2014,08,10,17,02,26.50
2014,08,10,17,03,26.40
2014,08,10,17,04,26.30
2014,08,10,17,05,26.30
2014,08,10,17,06,26.40
2014,08,10,17,07,26.60
2014,08,10,17,08,26.80
2014,08,10,17,09,26.90
2014,08,10,17,10,27.00
2014,08,10,17,11,27.20
2014,08,10,17,12,27.30
2014,08,10,17,13,27.40
2014,08,10,17,14,27.40
2014,08,10,17,15,27.40
2014,08,10,17,16,27.50
2014,08,10,17,17,27.60
2014,08,10,17,18,27.60
2014,08,10,17,19,27.70
2014,08,10,17,20,27.80